Wind_Speed
23 22 22 21 19 18 17 16 16 14 12 10 9 9 9 7 6 5 5 5 5 5 5 7 8 10 11 13 15 16 17 18 18 17 17 17 17 18 18 19 19 20
24 23 22 21 20 19 18 18 17 15 12 11 11 11 10 8 7 6 6 7 7 7 7 8 10 11 12 13 15 16 17 18 19 19 18 18 18 19 20 20 21 21
25 24 23 21 20 20 20 18 17 15 13 13 13 12 10 8 8 8 8 9 9 9 10 10 11 12 13 14 15 17 18 19 20 20 20 20 20 20 21 22 22 23
25 24 22 22 21 21 20 18 16 15 14 14 13 13 11 10 10 11 11 11 11 11 12 13 13 13 14 15 16 18 19 20 20 20 21 21 21 21 22 23 24 24
25 24 23 22 22 21 19 18 17 16 15 15 14 13 12 12 13 13 13 13 14 14 14 14 15 15 15 16 17 18 19 20 21 22 22 22 23 23 24 25 26 26
26 25 24 23 22 21 20 19 18 18 17 17 16 15 14 15 15 15 15 15 16 16 16 16 17 17 17 18 18 19 20 21 22 23 23 24 24 25 26 26 27 27
27 26 25 24 23 23 22 21 21 20 19 18 17 16 17 17 17 17 18 18 19 19 19 19 19 20 20 20 20 21 21 22 22 23 25 26 26 27 27 27 28 28
28 27 27 26 26 25 24 23 22 21 20 19 18 18 19 19 19 19 20 20 21 21 22 22 22 22 22 22 22 22 23 23 23 24 26 28 29 29 28 28 29 30
30 30 29 28 28 27 25 24 23 22 21 20 20 21 21 21 21 22 22 22 23 23 24 24 24 25 25 24 24 24 25 25 25 26 28 29 30 30 30 30 31 32
33 32 31 30 28 27 26 25 24 24 23 22 23 23 23 23 23 24 24 24 25 25 26 26 26 27 27 26 26 26 26 27 28 29 29 30 30 30 31 32 33 34
34 33 31 29 28 27 26 25 25 25 25 24 25 25 24 25 25 25 26 26 26 27 27 28 28 28 28 28 27 27 28 29 30 31 31 31 31 31 32 34 35 37
36 34 31 30 28 28 27 28 28 27 27 26 26 26 26 26 27 27 27 28 28 28 28 29 29 29 28 28 28 29 29 31 32 33 33 32 33 34 35 36 37 39
37 34 32 31 30 30 30 31 30 29 28 28 27 27 28 28 28 29 29 28 28 29 30 29 29 30 30 30 30 31 32 33 34 34 35 35 35 36 38 39 40 41
37 35 33 32 32 32 33 32 31 30 29 28 28 29 30 30 30 30 30 30 30 30 30 31 30 30 31 31 32 33 34 35 35 36 37 38 38 39 40 41 42 44
37 35 34 33 33 33 33 32 31 30 30 30 30 31 31 32 31 31 31 31 31 31 31 32 32 32 32 33 34 35 36 37 37 38 39 40 41 42 43 44 46 47
37 36 35 34 34 33 33 32 32 32 33 33 33 32 32 33 33 32 32 32 32 32 32 32 33 33 34 34 35 37 38 38 39 40 41 42 43 44 45 47 49 50
37 37 36 35 35 35 34 34 34 35 35 35 34 33 33 34 34 34 33 33 33 34 34 34 35 35 35 36 37 38 39 40 41 42 43 44 45 47 48 50 52 53
38 37 37 37 37 37 36 36 36 36 36 35 34 34 34 34 34 34 34 34 35 35 36 36 36 36 37 37 38 39 40 42 43 44 45 47 48 50 51 53 55 56
38 38 38 38 38 37 37 37 37 37 36 35 35 34 35 35 34 35 36 36 36 36 37 37 37 38 38 39 39 41 42 44 45 47 48 49 51 53 55 56 57 58
39 38 38 38 38 38 37 37 37 37 36 35 35 35 35 36 36 37 37 37 38 38 38 38 38 39 40 40 41 42 44 46 48 50 52 53 55 56 57 58 58 57
39 38 38 38 38 38 38 38 37 37 36 36 36 36 37 37 38 38 38 38 39 39 40 40 40 41 42 43 43 44 46 48 50 53 55 56 57 58 57 56 54 52
38 38 37 37 37 38 38 38 37 37 37 37 37 38 38 39 39 39 39 39 40 41 41 41 42 43 44 45 46 47 49 51 53 55 57 57 56 55 52 51 49 48
38 37 37 38 38 38 39 38 38 38 38 38 39 39 39 39 39 39 39 40 41 42 43 44 45 46 47 48 49 51 52 54 55 55 55 54 52 49 47 47 46 46
38 38 39 39 40 40 39 39 39 39 39 39 39 39 39 39 39 40 41 42 43 44 45 46 47 49 50 51 53 53 54 54 52 50 49 47 45 44 44 44 44 44
40 40 40 41 40 40 39 39 39 39 40 40 40 40 40 41 42 43 43 44 45 47 48 49 50 52 53 53 54 53 51 49 46 45 43 41 40 41 41 41 41 41
41 41 41 41 40 40 40 40 41 41 41 41 42 42 43 43 44 45 46 47 49 50 51 52 52 53 52 51 50 47 44 42 41 41 40 39 39 40 40 40 40 40
Wind_Direction
197 196 197 197 197 198 200 203 206 208 208 208 212 222 225 223 226 241 257 271 284 294 306 316 325 331 335 338 340 343 347 348 348 347 347 347 347 345 344 345 346 347
199 198 199 199 198 199 202 206 208 208 208 209 215 225 231 230 233 245 257 269 277 283 292 301 310 316 322 328 331 334 338 340 341 341 340 340 340 339 339 338 339 340
200 200 200 199 199 201 204 207 209 209 207 209 216 226 232 237 244 252 260 266 271 278 286 293 300 307 313 320 324 327 330 332 334 335 336 335 333 333 333 333 334 334
201 200 200 199 200 203 204 206 208 208 207 211 217 224 232 238 246 251 256 261 267 274 282 289 294 300 307 313 318 321 324 325 327 329 330 330 329 328 328 328 328 329
201 200 199 199 201 202 204 205 209 211 212 216 220 225 232 239 246 252 255 260 267 273 279 285 291 296 302 307 312 315 317 319 321 322 324 325 325 323 323 323 324 324
202 201 201 202 203 204 206 208 212 216 219 222 224 228 235 241 247 255 261 266 271 276 280 284 289 293 298 303 307 309 311 313 315 317 319 320 320 319 319 319 320 320
203 204 205 206 207 208 210 213 216 220 224 227 231 236 241 246 250 257 264 269 273 278 282 285 288 292 296 300 303 305 306 309 312 315 316 316 316 316 315 316 316 317
206 207 210 211 212 213 214 218 221 225 229 233 238 244 249 252 256 260 266 271 275 279 282 285 288 292 295 299 301 302 304 307 310 313 314 315 314 314 313 313 313 314
210 211 213 215 217 218 220 223 227 231 235 240 245 251 255 259 263 266 270 274 278 281 283 286 289 292 295 298 299 301 303 306 310 312 313 312 312 311 311 311 311 312
214 215 217 219 222 224 227 230 234 239 243 248 252 257 261 265 268 271 274 277 279 281 284 286 289 292 295 297 299 300 303 306 308 309 310 309 308 308 308 309 309 310
219 220 221 224 227 231 235 239 243 246 250 255 259 263 266 269 272 275 278 280 281 282 284 287 289 292 294 296 298 300 302 304 305 306 306 306 305 305 306 307 308 309
222 223 225 228 231 236 240 243 247 250 254 258 261 264 266 269 272 275 278 280 282 283 284 287 289 291 293 294 296 298 299 300 302 303 304 304 304 304 305 306 307 309
224 226 228 230 234 237 240 244 246 250 254 257 259 262 264 267 270 273 276 278 280 282 284 285 287 289 290 292 293 295 296 298 300 302 302 303 303 304 305 307 308 309
226 227 230 232 234 237 240 242 245 248 251 253 256 260 263 266 268 271 274 275 277 279 281 282 283 285 287 289 291 292 295 297 300 301 301 302 303 305 306 307 308 308
225 227 229 232 234 237 239 241 243 245 247 250 254 258 262 264 266 268 270 272 274 275 276 278 281 283 285 287 289 292 294 297 299 300 301 302 304 306 307 307 307 307
225 226 229 231 234 236 238 239 241 244 248 251 254 257 260 263 265 267 268 270 272 274 275 278 280 283 284 287 289 292 295 298 299 300 301 302 304 305 305 306 306 307
225 227 230 232 235 237 239 241 244 247 251 254 256 259 262 265 267 269 271 272 273 275 277 278 280 282 284 287 291 294 296 298 298 299 300 302 303 303 304 305 306 307
228 230 232 235 237 240 242 244 247 250 253 256 259 262 264 266 269 272 273 273 273 275 277 279 281 283 286 290 292 294 296 297 298 299 300 301 302 303 304 305 306 306
231 233 235 238 240 243 245 247 249 252 255 258 261 264 266 267 270 272 273 274 275 276 278 280 282 285 288 291 292 293 295 296 298 299 300 301 302 303 304 305 305 305
234 236 238 241 244 246 248 250 252 255 257 259 262 265 267 269 271 272 273 275 276 278 279 282 284 287 289 290 291 293 295 297 298 299 300 301 302 303 304 304 303 304
236 238 241 244 246 249 251 253 255 257 259 261 264 266 267 269 270 271 273 275 277 279 281 284 286 287 288 290 292 294 296 297 298 299 300 300 301 302 302 302 302 304
239 241 242 245 247 250 252 254 256 259 262 263 265 265 266 268 269 271 273 275 278 280 282 284 285 287 289 291 293 295 296 297 298 299 299 299 300 301 302 301 302 304
241 242 244 246 248 250 253 255 258 261 263 264 265 265 266 268 270 273 275 277 279 281 282 284 286 288 290 292 293 295 296 297 297 298 298 299 300 301 302 302 303 305
243 244 245 247 249 251 254 257 259 261 262 263 265 266 268 270 273 274 276 277 279 281 283 285 287 289 291 292 293 295 296 296 296 296 296 297 299 301 302 303 304 306
245 245 246 248 249 252 254 256 257 259 261 263 265 268 270 272 273 275 276 278 280 282 284 286 288 290 291 292 293 294 295 296 296 295 296 299 301 302 303 303 304 306
246 247 248 249 250 251 252 254 256 258 261 263 265 268 270 272 274 276 278 280 282 284 285 287 288 289 290 292 293 295 296 297 297 299 301 305 306 306 306 307 308 309
Height
11000 11002 11003 11005 11007 11008 11010 11011 11012 11014 11015 11016 11017 11017 11018 11019 11020 11020 11020 11021 11021 11020 11020 11020 11020 11019 11019 11019 11018 11017 11016 11015 11014 11013 11012 11011 11010 11009 11008 11006 11005 11004
10998 11000 11002 11003 11005 11007 11008 11010 11011 11013 11014 11015 11016 11016 11017 11018 11019 11019 11019 11020 11020 11020 11020 11019 11019 11018 11018 11018 11017 11016 11015 11014 11013 11012 11011 11010 11009 11008 11006 11005 11004 11002
10996 10998 11000 11002 11004 11005 11007 11008 11010 11012 11013 11014 11015 11016 11016 11017 11018 11018 11018 11018 11019 11019 11019 11018 11018 11017 11017 11016 11016 11015 11014 11013 11012 11011 11010 11009 11008 11006 11005 11004 11002 11001
10995 10997 10999 11000 11002 11004 11006 11007 11009 11010 11012 11013 11014 11014 11015 11016 11016 11016 11017 11017 11017 11017 11017 11017 11016 11016 11016 11015 11014 11013 11012 11011 11010 11009 11008 11007 11006 11005 11004 11002 11001 10999
10993 10995 10997 10999 11001 11002 11004 11006 11007 11009 11010 11011 11012 11013 11014 11014 11014 11015 11015 11015 11015 11015 11015 11015 11015 11014 11014 11013 11013 11012 11011 11010 11009 11007 11007 11006 11004 11003 11002 11000 10999 10997
10992 10993 10995 10997 10999 11001 11003 11004 11005 11006 11008 11009 11010 11011 11012 11012 11013 11013 11013 11013 11013 11013 11013 11013 11012 11012 11012 11012 11011 11010 11009 11008 11007 11006 11005 11003 11002 11001 11000 10998 10997 10995
10990 10992 10993 10995 10997 10999 11000 11002 11003 11004 11005 11007 11008 11009 11010 11010 11011 11011 11011 11011 11011 11011 11010 11010 11010 11010 11009 11009 11009 11008 11007 11006 11005 11004 11002 11001 11000 10999 10998 10996 10995 10993
10988 10989 10991 10992 10994 10996 10998 10999 11001 11002 11003 11005 11006 11007 11007 11008 11009 11009 11009 11009 11008 11008 11008 11007 11007 11007 11007 11007 11006 11005 11004 11004 11003 11002 11001 10999 10998 10996 10995 10994 10992 10991
10985 10986 10987 10989 10991 10993 10995 10997 10999 11000 11001 11003 11004 11004 11005 11006 11006 11006 11007 11007 11006 11006 11005 11005 11005 11004 11004 11004 11003 11002 11001 11001 11000 11000 10998 10997 10995 10993 10992 10991 10990 10988
10982 10983 10984 10986 10988 10991 10993 10995 10996 10998 10999 11001 11001 11002 11003 11003 11004 11004 11004 11004 11004 11003 11003 11002 11002 11002 11001 11001 11000 10999 10998 10997 10997 10996 10996 10994 10992 10991 10989 10987 10986 10985
10979 10981 10982 10985 10987 10989 10991 10992 10994 10995 10997 10998 10999 10999 11000 11001 11001 11001 11001 11001 11001 11001 11000 11000 10999 10999 10999 10998 10997 10996 10995 10994 10993 10993 10992 10991 10989 10988 10986 10984 10983 10981
10976 10978 10980 10983 10985 10986 10988 10989 10990 10992 10994 10995 10996 10996 10997 10998 10998 10999 10999 10999 10998 10998 10998 10997 10997 10996 10996 10995 10994 10993 10992 10991 10990 10989 10988 10987 10986 10984 10983 10982 10980 10978
10972 10975 10978 10980 10981 10983 10984 10985 10987 10989 10991 10992 10993 10993 10994 10995 10996 10996 10996 10997 10996 10995 10995 10995 10994 10993 10992 10992 10991 10990 10989 10987 10986 10985 10984 10983 10982 10980 10979 10978 10976 10975
10970 10972 10974 10976 10978 10979 10980 10982 10984 10986 10987 10988 10989 10989 10990 10991 10992 10993 10993 10993 10993 10993 10992 10991 10991 10990 10989 10988 10987 10986 10985 10984 10983 10982 10980 10979 10978 10977 10975 10974 10972 10971
10967 10969 10971 10973 10974 10975 10977 10979 10980 10982 10983 10984 10985 10986 10987 10988 10989 10990 10990 10990 10990 10989 10989 10988 10987 10987 10986 10985 10984 10983 10982 10981 10980 10979 10977 10975 10974 10973 10971 10970 10968 10966
10963 10965 10967 10969 10970 10972 10974 10975 10977 10978 10979 10980 10982 10983 10984 10984 10985 10986 10986 10986 10986 10985 10985 10985 10984 10983 10983 10982 10981 10980 10979 10978 10977 10975 10973 10972 10970 10969 10967 10966 10964 10962
10960 10962 10964 10965 10967 10968 10970 10972 10973 10974 10975 10976 10978 10980 10981 10981 10981 10982 10982 10982 10982 10981 10981 10981 10980 10980 10979 10979 10978 10977 10976 10974 10972 10971 10970 10968 10967 10965 10963 10962 10960 10958
10956 10959 10960 10962 10963 10965 10967 10969 10970 10971 10972 10973 10975 10977 10977 10977 10978 10978 10977 10977 10977 10977 10976 10976 10976 10976 10976 10976 10975 10974 10972 10970 10968 10967 10966 10964 10963 10961 10959 10958 10956 10953
10953 10956 10957 10959 10960 10962 10964 10966 10966 10968 10969 10971 10972 10973 10973 10973 10974 10973 10972 10972 10972 10973 10972 10972 10972 10972 10972 10972 10971 10970 10968 10966 10964 10963 10961 10960 10958 10957 10955 10953 10951 10948
10950 10953 10955 10956 10958 10959 10961 10962 10963 10965 10967 10968 10969 10969 10969 10969 10969 10969 10968 10968 10968 10968 10968 10968 10968 10968 10968 10967 10967 10966 10965 10962 10960 10958 10956 10955 10954 10952 10951 10948 10946 10943
10947 10950 10952 10954 10955 10957 10958 10959 10960 10962 10963 10965 10965 10965 10965 10965 10965 10964 10964 10964 10964 10963 10963 10964 10964 10963 10963 10963 10963 10962 10961 10959 10957 10954 10952 10950 10949 10948 10946 10943 10941 10939
10944 10946 10949 10950 10952 10953 10954 10956 10957 10958 10959 10960 10961 10961 10961 10961 10961 10961 10961 10960 10960 10959 10959 10959 10959 10959 10958 10958 10958 10958 10957 10955 10953 10950 10947 10945 10944 10943 10941 10938 10936 10935
10941 10943 10945 10946 10948 10948 10950 10952 10953 10954 10955 10955 10956 10956 10956 10957 10957 10957 10956 10956 10956 10955 10955 10955 10955 10954 10954 10954 10954 10953 10952 10950 10949 10946 10943 10940 10939 10938 10936 10933 10932 10931
10937 10939 10941 10942 10943 10944 10946 10948 10949 10950 10950 10950 10951 10951 10952 10952 10952 10952 10952 10951 10951 10951 10950 10950 10950 10950 10949 10949 10948 10948 10947 10946 10945 10942 10940 10938 10936 10935 10932 10930 10928 10927
10932 10934 10936 10938 10939 10941 10943 10944 10944 10945 10946 10946 10946 10947 10947 10948 10947 10947 10947 10947 10946 10946 10946 10945 10945 10944 10944 10943 10943 10943 10942 10941 10939 10937 10936 10935 10934 10932 10929 10927 10925 10923
10928 10930 10932 10934 10936 10937 10938 10939 10940 10940 10941 10942 10942 10942 10943 10943 10943 10942 10942 10942 10941 10941 10940 10940 10939 10939 10939 10939 10938 10938 10937 10935 10933 10931 10930 10930 10928 10926 10924 10922 10921 10920